contact:dominique.lefevre@mio.osupytheas.fr, maurice.libes@osupytheas.fr, didier.mallarino@osupytheas.fr
Project:EMSO http://www.emso-fr.org/EMSO-France
Depth: 2436.0 m
Title:EMSO Ligure Ouest : Data MII capteur CSTAR
DateTime,Latitude,Longitude,Instrument_Serial,Reference_Counts,Signal_Counts,Corrected_Signal_raw_counts,Calculated_Beam_c_inverse_meters,Internal_thermistor_counts
DateTime,Latitude,Longitude,Instrument_Serial,Reference_Counts,Signal_Counts,Corrected_Signal_raw_counts,Calculated_Beam_c_inverse_meters,Internal_thermistor_counts
2022-09-29T00:02:08,42.805,6.029,CST-1368DR,4564,5041,11755,01.136,551
2022-09-29T00:05:09,42.805,6.029,CST-1368DR,4564,5042,11758,01.135,551
2022-09-29T00:08:11,42.805,6.029,CST-1368DR,4564,5047,11769,01.131,551
2022-09-29T00:11:12,42.805,6.029,CST-1368DR,4564,5044,11764,01.133,551
2022-09-29T00:14:14,42.805,6.029,CST-1368DR,4564,5042,11758,01.135,551
2022-09-29T00:17:16,42.805,6.029,CST-1368DR,4564,5041,11756,01.136,551
2022-09-29T00:20:17,42.805,6.029,CST-1368DR,4564,5043,11760,01.134,551
2022-09-29T00:23:19,42.805,6.029,CST-1368DR,4564,5043,11759,01.135,551
2022-09-29T00:26:20,42.805,6.029,CST-1368DR,4564,5045,11764,01.133,550
2022-09-29T00:29:22,42.805,6.029,CST-1368DR,4564,5049,11773,01.130,551
2022-09-29T00:32:24,42.805,6.029,CST-1368DR,4564,5044,11762,01.134,551
2022-09-29T00:35:25,42.805,6.029,CST-1368DR,4564,5049,11773,01.130,551
2022-09-29T00:38:27,42.805,6.029,CST-1368DR,4564,5045,11766,01.132,551
2022-09-29T00:41:28,42.805,6.029,CST-1368DR,4564,5049,11774,01.130,551
2022-09-29T00:44:30,42.805,6.029,CST-1368DR,4564,5044,11764,01.133,551
2022-09-29T00:47:31,42.805,6.029,CST-1368DR,4564,5047,11769,01.131,551
2022-09-29T00:50:33,42.805,6.029,CST-1368DR,4564,5047,11770,01.131,551
2022-09-29T00:53:35,42.805,6.029,CST-1368DR,4564,5045,11765,01.133,551
2022-09-29T00:56:36,42.805,6.029,CST-1368DR,4564,5048,11772,01.130,551
2022-09-29T00:59:38,42.805,6.029,CST-1368DR,4564,5045,11765,01.133,551
2022-09-29T01:02:39,42.805,6.029,CST-1368DR,4564,5044,11762,01.134,551
2022-09-29T01:05:41,42.805,6.029,CST-1368DR,4564,5047,11769,01.131,551
2022-09-29T01:08:42,42.805,6.029,CST-1368DR,4564,5051,11779,01.128,551
2022-09-29T01:11:44,42.805,6.029,CST-1368DR,4564,5047,11769,01.131,551
2022-09-29T01:14:46,42.805,6.029,CST-1368DR,4564,5039,11752,01.137,551
2022-09-29T01:17:47,42.805,6.029,CST-1368DR,4564,5048,11772,01.130,551
2022-09-29T01:20:49,42.805,6.029,CST-1368DR,4564,5046,11768,01.132,551
2022-09-29T01:23:50,42.805,6.029,CST-1368DR,4564,5046,11768,01.132,551
2022-09-29T01:26:52,42.805,6.029,CST-1368DR,4564,5047,11769,01.131,551
2022-09-29T01:29:54,42.805,6.029,CST-1368DR,4564,5043,11761,01.134,551
2022-09-29T01:32:55,42.805,6.029,CST-1368DR,4564,5048,11772,01.130,551
2022-09-29T01:35:57,42.805,6.029,CST-1368DR,4564,5046,11768,01.132,551
2022-09-29T01:38:58,42.805,6.029,CST-1368DR,4564,5046,11768,01.132,551
2022-09-29T01:42:00,42.805,6.029,CST-1368DR,4564,5047,11769,01.131,551
2022-09-29T01:45:01,42.805,6.029,CST-1368DR,4564,5046,11767,01.132,551
2022-09-29T01:48:03,42.805,6.029,CST-1368DR,4564,5047,11770,01.131,551
2022-09-29T01:51:05,42.805,6.029,CST-1368DR,4564,5045,11765,01.133,551
2022-09-29T01:54:06,42.805,6.029,CST-1368DR,4564,5049,11773,01.130,551
2022-09-29T01:57:08,42.805,6.029,CST-1368DR,4564,5049,11775,01.129,551
2022-09-29T02:00:09,42.805,6.029,CST-1368DR,4564,5049,11773,01.130,551
2022-09-29T02:03:11,42.805,6.029,CST-1368DR,4564,5049,11775,01.129,551
2022-09-29T02:06:13,42.805,6.029,CST-1368DR,4564,5045,11766,01.132,551
2022-09-29T02:09:14,42.805,6.029,CST-1368DR,4564,5046,11766,01.132,551
2022-09-29T02:12:16,42.805,6.029,CST-1368DR,4564,5047,11770,01.131,551
2022-09-29T02:15:17,42.805,6.029,CST-1368DR,4564,5052,11782,01.127,551
2022-09-29T02:18:19,42.805,6.029,CST-1368DR,4564,5043,11760,01.134,551
2022-09-29T02:21:20,42.805,6.029,CST-1368DR,4564,5047,11769,01.131,551
2022-09-29T02:24:22,42.805,6.029,CST-1368DR,4564,5042,11759,01.135,551
2022-09-29T02:27:24,42.805,6.029,CST-1368DR,4564,5051,11778,01.128,551
2022-09-29T02:30:25,42.805,6.029,CST-1368DR,4564,5043,11761,01.134,551
2022-09-29T02:33:27,42.805,6.029,CST-1368DR,4564,5048,11771,01.131,551
2022-09-29T02:36:28,42.805,6.029,CST-1368DR,4564,5052,11782,01.127,551
2022-09-29T02:39:30,42.805,6.029,CST-1368DR,4564,5045,11764,01.133,551
2022-09-29T02:42:31,42.805,6.029,CST-1368DR,4564,5049,11773,01.130,551
2022-09-29T02:45:33,42.805,6.029,CST-1368DR,4564,5048,11771,01.131,551
2022-09-29T02:48:35,42.805,6.029,CST-1368DR,4564,5046,11766,01.132,551
2022-09-29T02:51:36,42.805,6.029,CST-1368DR,4564,5049,11773,01.130,551
2022-09-29T02:54:38,42.805,6.029,CST-1368DR,4564,5045,11766,01.132,551
2022-09-29T02:57:39,42.805,6.029,CST-1368DR,4564,5045,11764,01.133,551
2022-09-29T03:00:41,42.805,6.029,CST-1368DR,4564,5044,11763,01.133,551
2022-09-29T03:03:43,42.805,6.029,CST-1368DR,4564,5045,11764,01.133,551
2022-09-29T03:06:44,42.805,6.029,CST-1368DR,4564,5048,11772,01.130,551
2022-09-29T03:09:46,42.805,6.029,CST-1368DR,4564,5044,11762,01.134,551
2022-09-29T03:12:47,42.805,6.029,CST-1368DR,4564,5041,11757,01.135,551
2022-09-29T03:15:49,42.805,6.029,CST-1368DR,4564,5041,11755,01.136,551
2022-09-29T03:18:50,42.805,6.029,CST-1368DR,4564,5040,11754,01.136,551
2022-09-29T03:21:52,42.805,6.029,CST-1368DR,4564,5043,11760,01.134,551
2022-09-29T03:24:54,42.805,6.029,CST-1368DR,4564,5040,11754,01.136,551
2022-09-29T03:27:55,42.805,6.029,CST-1368DR,4564,5041,11756,01.136,551
2022-09-29T03:30:57,42.805,6.029,CST-1368DR,4564,5039,11752,01.137,551
2022-09-29T03:33:58,42.805,6.029,CST-1368DR,4564,5041,11755,01.136,551
2022-09-29T03:37:00,42.805,6.029,CST-1368DR,4564,5044,11762,01.134,551
2022-09-29T03:40:01,42.805,6.029,CST-1368DR,4564,5041,11755,01.136,551
2022-09-29T03:43:03,42.805,6.029,CST-1368DR,4564,5040,11754,01.136,551
2022-09-29T03:46:05,42.805,6.029,CST-1368DR,4564,5041,11757,01.135,551
2022-09-29T03:49:06,42.805,6.029,CST-1368DR,4564,5031,11733,01.144,551
2022-09-29T03:52:08,42.805,6.029,CST-1368DR,4564,5041,11756,01.136,551
2022-09-29T03:55:09,42.805,6.029,CST-1368DR,4564,5035,11743,01.140,551
2022-09-29T03:58:11,42.805,6.029,CST-1368DR,4564,5034,11740,01.141,551
2022-09-29T04:01:13,42.805,6.029,CST-1368DR,4564,5029,11727,01.146,551
2022-09-29T04:04:14,42.805,6.029,CST-1368DR,4564,5037,11747,01.139,551
2022-09-29T04:07:16,42.805,6.029,CST-1368DR,4564,5040,11753,01.137,551
2022-09-29T04:10:17,42.805,6.029,CST-1368DR,4564,5039,11751,01.137,551
2022-09-29T04:13:19,42.805,6.029,CST-1368DR,4564,5036,11744,01.140,551
2022-09-29T04:16:20,42.805,6.029,CST-1368DR,4564,5036,11743,01.140,551
2022-09-29T04:19:22,42.805,6.029,CST-1368DR,4564,5039,11750,01.138,551
2022-09-29T04:22:24,42.805,6.029,CST-1368DR,4564,5037,11747,01.139,551
2022-09-29T04:25:25,42.805,6.029,CST-1368DR,4564,5029,11728,01.145,551
2022-09-29T04:28:27,42.805,6.029,CST-1368DR,4564,5033,11738,01.142,551
2022-09-29T04:31:28,42.805,6.029,CST-1368DR,4564,5043,11759,01.135,551
2022-09-29T04:34:30,42.805,6.029,CST-1368DR,4564,5039,11751,01.137,551
2022-09-29T04:37:31,42.805,6.029,CST-1368DR,4564,5037,11746,01.139,551
2022-09-29T04:40:33,42.805,6.029,CST-1368DR,4564,5043,11761,01.134,551
2022-09-29T04:43:35,42.805,6.029,CST-1368DR,4564,5042,11758,01.135,551
2022-09-29T04:46:36,42.805,6.029,CST-1368DR,4564,5037,11746,01.139,551
2022-09-29T04:49:38,42.805,6.029,CST-1368DR,4564,5040,11752,01.137,551
2022-09-29T04:52:39,42.805,6.029,CST-1368DR,4564,5041,11756,01.136,551
2022-09-29T04:55:41,42.805,6.029,CST-1368DR,4564,5038,11748,01.138,551
2022-09-29T04:58:43,42.805,6.029,CST-1368DR,4564,5041,11755,01.136,551
2022-09-29T05:01:44,42.805,6.029,CST-1368DR,4564,5041,11755,01.136,551
2022-09-29T05:04:46,42.805,6.029,CST-1368DR,4564,5041,11756,01.136,551
2022-09-29T05:07:47,42.805,6.029,CST-1368DR,4564,5039,11750,01.138,551
2022-09-29T05:10:49,42.805,6.029,CST-1368DR,4564,5040,11752,01.137,551
2022-09-29T05:13:50,42.805,6.029,CST-1368DR,4564,5040,11754,01.136,551
2022-09-29T05:16:52,42.805,6.029,CST-1368DR,4564,5039,11752,01.137,551
2022-09-29T05:19:54,42.805,6.029,CST-1368DR,4564,5040,11754,01.136,551
2022-09-29T05:22:55,42.805,6.029,CST-1368DR,4564,5042,11758,01.135,551
2022-09-29T05:25:57,42.805,6.029,CST-1368DR,4564,5043,11761,01.134,551
2022-09-29T05:28:58,42.805,6.029,CST-1368DR,4564,5039,11751,01.137,551
2022-09-29T05:32:00,42.805,6.029,CST-1368DR,4564,5043,11761,01.134,551
2022-09-29T05:35:01,42.805,6.029,CST-1368DR,4564,5038,11748,01.138,551
2022-09-29T05:38:03,42.805,6.029,CST-1368DR,4564,5040,11752,01.137,551
2022-09-29T05:41:05,42.805,6.029,CST-1368DR,4564,5041,11755,01.136,551
2022-09-29T05:44:06,42.805,6.029,CST-1368DR,4564,5042,11758,01.135,551
2022-09-29T05:47:08,42.805,6.029,CST-1368DR,4564,5042,11758,01.135,551
2022-09-29T05:50:09,42.805,6.029,CST-1368DR,4564,5040,11754,01.136,551
2022-09-29T05:53:11,42.805,6.029,CST-1368DR,4564,5042,11759,01.135,551
2022-09-29T05:56:13,42.805,6.029,CST-1368DR,4564,5042,11758,01.135,551
2022-09-29T05:59:14,42.805,6.029,CST-1368DR,4564,5041,11757,01.135,551
2022-09-29T06:02:16,42.805,6.029,CST-1368DR,4564,5043,11759,01.135,551
2022-09-29T06:05:17,42.805,6.029,CST-1368DR,4564,5041,11757,01.135,551
2022-09-29T06:08:19,42.805,6.029,CST-1368DR,4564,5042,11759,01.135,551
2022-09-29T06:11:20,42.805,6.029,CST-1368DR,4564,5045,11764,01.133,551
2022-09-29T06:14:22,42.805,6.029,CST-1368DR,4564,5042,11759,01.135,551
2022-09-29T06:17:24,42.805,6.029,CST-1368DR,4564,5043,11761,01.134,551
2022-09-29T06:20:25,42.805,6.029,CST-1368DR,4564,5043,11761,01.134,551
2022-09-29T06:23:27,42.805,6.029,CST-1368DR,4564,5041,11755,01.136,551
2022-09-29T06:26:28,42.805,6.029,CST-1368DR,4564,5042,11759,01.135,551
2022-09-29T06:29:30,42.805,6.029,CST-1368DR,4564,5042,11758,01.135,551
2022-09-29T06:32:31,42.805,6.029,CST-1368DR,4564,5041,11755,01.136,551
2022-09-29T06:35:33,42.805,6.029,CST-1368DR,4564,5044,11762,01.134,551
2022-09-29T06:38:35,42.805,6.029,CST-1368DR,4564,5050,11776,01.129,551
2022-09-29T06:41:36,42.805,6.029,CST-1368DR,4564,5042,11759,01.135,551
2022-09-29T06:44:38,42.805,6.029,CST-1368DR,4564,5041,11755,01.136,551
2022-09-29T06:47:39,42.805,6.029,CST-1368DR,4564,5043,11761,01.134,551
2022-09-29T06:50:41,42.805,6.029,CST-1368DR,4564,5042,11759,01.135,551
2022-09-29T06:53:43,42.805,6.029,CST-1368DR,4564,5042,11758,01.135,551
2022-09-29T06:56:44,42.805,6.029,CST-1368DR,4564,5044,11762,01.134,551
2022-09-29T06:59:46,42.805,6.029,CST-1368DR,4564,5043,11761,01.134,551
2022-09-29T07:02:47,42.805,6.029,CST-1368DR,4564,5043,11759,01.135,551
2022-09-29T07:05:49,42.805,6.029,CST-1368DR,4564,5043,11761,01.134,551
2022-09-29T07:08:50,42.805,6.029,CST-1368DR,4564,5043,11760,01.134,551
2022-09-29T07:11:52,42.805,6.029,CST-1368DR,4564,5042,11758,01.135,551
2022-09-29T07:14:54,42.805,6.029,CST-1368DR,4564,5046,11766,01.132,551
2022-09-29T07:17:55,42.805,6.029,CST-1368DR,4564,5043,11761,01.134,551
2022-09-29T07:20:57,42.805,6.029,CST-1368DR,4564,5044,11762,01.134,551
2022-09-29T07:23:58,42.805,6.029,CST-1368DR,4564,5046,11766,01.132,551
2022-09-29T07:27:00,42.805,6.029,CST-1368DR,4564,5046,11766,01.132,551
2022-09-29T07:30:01,42.805,6.029,CST-1368DR,4564,5044,11762,01.134,551
2022-09-29T07:33:03,42.805,6.029,CST-1368DR,4564,5046,11766,01.132,551
2022-09-29T07:36:05,42.805,6.029,CST-1368DR,4564,5044,11762,01.134,551
2022-09-29T07:39:06,42.805,6.029,CST-1368DR,4564,5046,11767,01.132,551
2022-09-29T07:42:08,42.805,6.029,CST-1368DR,4564,5033,11736,01.143,551
2022-09-29T07:45:09,42.805,6.029,CST-1368DR,4564,5047,11770,01.131,551
2022-09-29T07:48:11,42.805,6.029,CST-1368DR,4564,5045,11764,01.133,551
2022-09-29T07:51:13,42.805,6.029,CST-1368DR,4564,5044,11763,01.133,551
2022-09-29T07:54:14,42.805,6.029,CST-1368DR,4564,5033,11737,01.142,551
2022-09-29T07:57:16,42.805,6.029,CST-1368DR,4564,5042,11759,01.135,551
2022-09-29T08:00:17,42.805,6.029,CST-1368DR,4564,5044,11764,01.133,551
2022-09-29T08:03:19,42.805,6.029,CST-1368DR,4564,5045,11766,01.132,551
2022-09-29T08:06:20,42.805,6.029,CST-1368DR,4564,5044,11762,01.134,551
2022-09-29T08:09:22,42.805,6.029,CST-1368DR,4564,5041,11756,01.136,551
2022-09-29T08:12:24,42.805,6.029,CST-1368DR,4564,5044,11762,01.134,551
2022-09-29T08:15:25,42.805,6.029,CST-1368DR,4564,5043,11761,01.134,551
2022-09-29T08:18:27,42.805,6.029,CST-1368DR,4564,5041,11755,01.136,551
2022-09-29T08:21:28,42.805,6.029,CST-1368DR,4564,5044,11762,01.134,551
2022-09-29T08:24:30,42.805,6.029,CST-1368DR,4563,5044,11765,01.133,551
2022-09-29T08:27:32,42.805,6.029,CST-1368DR,4564,5044,11762,01.134,551
2022-09-29T08:30:33,42.805,6.029,CST-1368DR,4563,5045,11767,01.132,551
2022-09-29T08:33:35,42.805,6.029,CST-1368DR,4564,5046,11766,01.132,551
2022-09-29T08:36:36,42.805,6.029,CST-1368DR,4563,5041,11758,01.135,551
2022-09-29T08:39:38,42.805,6.029,CST-1368DR,4563,5044,11765,01.133,551
2022-09-29T08:42:39,42.805,6.029,CST-1368DR,4563,5044,11766,01.132,551
2022-09-29T08:45:41,42.805,6.029,CST-1368DR,4563,5043,11764,01.133,551
2022-09-29T08:48:43,42.805,6.029,CST-1368DR,4563,5043,11763,01.133,551
2022-09-29T08:51:44,42.805,6.029,CST-1368DR,4563,5043,11762,01.134,551
2022-09-29T08:54:46,42.805,6.029,CST-1368DR,4563,5042,11761,01.134,551
2022-09-29T08:57:47,42.805,6.029,CST-1368DR,4563,5043,11762,01.134,551
2022-09-29T09:00:49,42.805,6.029,CST-1368DR,4564,5051,11778,01.128,551
2022-09-29T09:03:50,42.805,6.029,CST-1368DR,4564,5044,11762,01.134,551
2022-09-29T09:06:52,42.805,6.029,CST-1368DR,4563,5044,11765,01.133,551
2022-09-29T09:09:54,42.805,6.029,CST-1368DR,4563,5043,11763,01.133,551
2022-09-29T09:12:55,42.805,6.029,CST-1368DR,4563,5044,11764,01.133,551
2022-09-29T09:15:57,42.805,6.029,CST-1368DR,4563,5044,11764,01.133,551
2022-09-29T09:18:58,42.805,6.029,CST-1368DR,4564,5050,11777,01.129,551
2022-09-29T09:22:00,42.805,6.029,CST-1368DR,4564,5045,11766,01.132,551
2022-09-29T09:25:02,42.805,6.029,CST-1368DR,4563,5038,11751,01.137,551
2022-09-29T09:28:03,42.805,6.029,CST-1368DR,4563,5042,11760,01.134,551
2022-09-29T09:31:05,42.805,6.029,CST-1368DR,4563,5044,11764,01.133,551
2022-09-29T09:34:06,42.805,6.029,CST-1368DR,4563,5043,11764,01.133,551
2022-09-29T09:37:08,42.805,6.029,CST-1368DR,4563,5043,11763,01.133,551
2022-09-29T09:40:09,42.805,6.029,CST-1368DR,4563,5043,11762,01.134,551
2022-09-29T09:43:11,42.805,6.029,CST-1368DR,4563,5043,11762,01.134,551
2022-09-29T09:46:13,42.805,6.029,CST-1368DR,4563,5041,11759,01.135,551
2022-09-29T09:49:14,42.805,6.029,CST-1368DR,4563,5044,11764,01.133,551
2022-09-29T09:52:16,42.805,6.029,CST-1368DR,4563,5044,11764,01.133,551
2022-09-29T09:55:17,42.805,6.029,CST-1368DR,4563,5043,11762,01.134,551
2022-09-29T09:58:19,42.805,6.029,CST-1368DR,4563,5042,11761,01.134,551
2022-09-29T10:01:20,42.805,6.029,CST-1368DR,4563,5044,11765,01.133,551
2022-09-29T10:04:22,42.805,6.029,CST-1368DR,4563,5044,11765,01.133,551
2022-09-29T10:07:24,42.805,6.029,CST-1368DR,4563,5044,11765,01.133,551
2022-09-29T10:10:25,42.805,6.029,CST-1368DR,4563,5044,11765,01.133,551
2022-09-29T10:13:27,42.805,6.029,CST-1368DR,4563,5045,11767,01.132,551
2022-09-29T10:16:28,42.805,6.029,CST-1368DR,4563,5043,11762,01.134,551
2022-09-29T10:19:30,42.805,6.029,CST-1368DR,4563,5042,11761,01.134,551
2022-09-29T10:22:32,42.805,6.029,CST-1368DR,4563,5043,11763,01.133,551
2022-09-29T10:25:33,42.805,6.029,CST-1368DR,4563,5043,11762,01.134,551
2022-09-29T10:28:35,42.805,6.029,CST-1368DR,4563,5041,11758,01.135,551
2022-09-29T10:31:36,42.805,6.029,CST-1368DR,4563,5043,11762,01.134,551
2022-09-29T10:34:38,42.805,6.029,CST-1368DR,4563,5033,11739,01.142,551
2022-09-29T10:37:39,42.805,6.029,CST-1368DR,4563,5032,11737,01.142,551
2022-09-29T10:40:41,42.805,6.029,CST-1368DR,4563,5043,11762,01.134,551
2022-09-29T10:43:43,42.805,6.029,CST-1368DR,4563,5044,11764,01.133,551
2022-09-29T10:46:44,42.805,6.029,CST-1368DR,4563,5039,11754,01.136,551
2022-09-29T10:49:46,42.805,6.029,CST-1368DR,4563,5043,11762,01.134,551
2022-09-29T10:52:47,42.805,6.029,CST-1368DR,4563,5042,11761,01.134,551
2022-09-29T10:55:49,42.805,6.029,CST-1368DR,4563,5053,11786,01.126,551
2022-09-29T10:58:50,42.805,6.029,CST-1368DR,4563,5047,11771,01.131,551
2022-09-29T11:01:52,42.805,6.029,CST-1368DR,4563,5044,11766,01.132,551
2022-09-29T11:04:54,42.805,6.029,CST-1368DR,4563,5044,11765,01.133,551
2022-09-29T11:07:55,42.805,6.029,CST-1368DR,4563,5041,11758,01.135,551
2022-09-29T11:10:57,42.805,6.029,CST-1368DR,4563,5041,11757,01.135,551
2022-09-29T11:13:58,42.805,6.029,CST-1368DR,4563,5041,11758,01.135,551
2022-09-29T11:17:00,42.805,6.029,CST-1368DR,4563,5040,11755,01.136,551
2022-09-29T11:20:02,42.805,6.029,CST-1368DR,4563,5043,11762,01.134,551
2022-09-29T11:23:03,42.805,6.029,CST-1368DR,4563,5043,11763,01.133,551
2022-09-29T11:26:05,42.805,6.029,CST-1368DR,4563,5042,11761,01.134,551
2022-09-29T11:29:06,42.805,6.029,CST-1368DR,4563,5044,11764,01.133,551
2022-09-29T11:32:08,42.805,6.029,CST-1368DR,4563,5043,11763,01.133,551
2022-09-29T11:35:09,42.805,6.029,CST-1368DR,4563,5042,11761,01.134,551
2022-09-29T11:38:11,42.805,6.029,CST-1368DR,4563,5041,11758,01.135,551
2022-09-29T11:41:13,42.805,6.029,CST-1368DR,4563,5042,11761,01.134,551
2022-09-29T11:44:14,42.805,6.029,CST-1368DR,4563,5043,11762,01.134,551
2022-09-29T11:47:16,42.805,6.029,CST-1368DR,4563,5041,11757,01.135,551
2022-09-29T11:50:17,42.805,6.029,CST-1368DR,4563,5043,11762,01.134,551
2022-09-29T11:53:19,42.805,6.029,CST-1368DR,4563,5044,11766,01.132,551
2022-09-29T11:56:21,42.805,6.029,CST-1368DR,4563,5039,11754,01.136,551
2022-09-29T11:59:22,42.805,6.029,CST-1368DR,4563,5043,11762,01.134,551
2022-09-29T12:02:24,42.805,6.029,CST-1368DR,4563,5041,11758,01.135,551
2022-09-29T12:05:25,42.805,6.029,CST-1368DR,4563,5044,11765,01.133,551
2022-09-29T12:08:27,42.805,6.029,CST-1368DR,4563,5039,11753,01.137,551
2022-09-29T12:11:28,42.805,6.029,CST-1368DR,4563,5041,11758,01.135,551
2022-09-29T12:14:30,42.805,6.029,CST-1368DR,4563,5043,11762,01.134,551
2022-09-29T12:17:32,42.805,6.029,CST-1368DR,4563,5040,11755,01.136,551
2022-09-29T12:20:33,42.805,6.029,CST-1368DR,4563,5038,11750,01.138,551
2022-09-29T12:23:35,42.805,6.029,CST-1368DR,4563,5038,11751,01.137,551
2022-09-29T12:26:36,42.805,6.029,CST-1368DR,4563,5043,11762,01.134,551
2022-09-29T12:29:38,42.805,6.029,CST-1368DR,4563,5042,11761,01.134,551
2022-09-29T12:32:39,42.805,6.029,CST-1368DR,4563,5037,11748,01.138,551
2022-09-29T12:35:41,42.805,6.029,CST-1368DR,4563,5040,11756,01.136,551
2022-09-29T12:38:43,42.805,6.029,CST-1368DR,4563,5041,11759,01.135,551
2022-09-29T12:41:44,42.805,6.029,CST-1368DR,4563,5034,11743,01.140,551
2022-09-29T12:44:46,42.805,6.029,CST-1368DR,4563,5039,11754,01.136,551
2022-09-29T12:47:47,42.805,6.029,CST-1368DR,4563,5039,11754,01.136,551
2022-09-29T12:50:49,42.805,6.029,CST-1368DR,4563,5044,11765,01.133,551
2022-09-29T12:53:51,42.805,6.029,CST-1368DR,4563,5043,11764,01.133,551
2022-09-29T12:56:52,42.805,6.029,CST-1368DR,4563,5040,11757,01.135,551
2022-09-29T12:59:54,42.805,6.029,CST-1368DR,4563,5041,11758,01.135,551
2022-09-29T13:02:55,42.805,6.029,CST-1368DR,4563,5042,11760,01.134,551
2022-09-29T13:05:57,42.805,6.029,CST-1368DR,4563,5045,11767,01.132,551
2022-09-29T13:08:58,42.805,6.029,CST-1368DR,4563,5044,11765,01.133,551
2022-09-29T13:12:00,42.805,6.029,CST-1368DR,4563,5044,11766,01.132,551
2022-09-29T13:15:02,42.805,6.029,CST-1368DR,4563,5046,11769,01.131,551
2022-09-29T13:18:03,42.805,6.029,CST-1368DR,4563,5046,11769,01.131,551
2022-09-29T13:21:05,42.805,6.029,CST-1368DR,4563,5046,11769,01.131,551
2022-09-29T13:24:06,42.805,6.029,CST-1368DR,4563,5043,11762,01.134,551
2022-09-29T13:27:08,42.805,6.029,CST-1368DR,4563,5044,11764,01.133,551
2022-09-29T13:30:09,42.805,6.029,CST-1368DR,4563,5048,11774,01.130,551
2022-09-29T13:33:11,42.805,6.029,CST-1368DR,4563,5047,11771,01.131,551
2022-09-29T13:36:13,42.805,6.029,CST-1368DR,4563,5046,11771,01.131,551
2022-09-29T13:39:14,42.805,6.029,CST-1368DR,4563,5038,11751,01.137,551
2022-09-29T13:42:16,42.805,6.029,CST-1368DR,4563,5043,11764,01.133,551
2022-09-29T13:45:17,42.805,6.029,CST-1368DR,4563,5043,11762,01.134,551
2022-09-29T13:48:19,42.805,6.029,CST-1368DR,4563,5041,11759,01.135,551
2022-09-29T13:51:21,42.805,6.029,CST-1368DR,4563,5041,11759,01.135,551
2022-09-29T13:54:22,42.805,6.029,CST-1368DR,4563,5043,11762,01.134,551
2022-09-29T13:57:24,42.805,6.029,CST-1368DR,4563,5043,11762,01.134,551
2022-09-29T14:00:25,42.805,6.029,CST-1368DR,4563,5038,11751,01.137,551
2022-09-29T14:03:27,42.805,6.029,CST-1368DR,4563,5042,11761,01.134,551
2022-09-29T14:06:28,42.805,6.029,CST-1368DR,4563,5037,11750,01.138,551
2022-09-29T14:09:30,42.805,6.029,CST-1368DR,4563,5037,11748,01.138,551
2022-09-29T14:12:32,42.805,6.029,CST-1368DR,4563,5047,11772,01.130,551
2022-09-29T14:15:33,42.805,6.029,CST-1368DR,4563,5046,11770,01.131,551
2022-09-29T14:18:35,42.805,6.029,CST-1368DR,4563,5040,11757,01.135,551
2022-09-29T14:21:36,42.805,6.029,CST-1368DR,4563,5040,11755,01.136,551
2022-09-29T14:24:38,42.805,6.029,CST-1368DR,4563,5038,11751,01.137,550
2022-09-29T14:27:39,42.805,6.029,CST-1368DR,4563,5045,11767,01.132,551
2022-09-29T14:30:41,42.805,6.029,CST-1368DR,4563,5046,11769,01.131,551
2022-09-29T14:33:43,42.805,6.029,CST-1368DR,4563,5043,11762,01.134,551
2022-09-29T14:36:44,42.805,6.029,CST-1368DR,4563,5046,11771,01.131,551
2022-09-29T14:39:46,42.805,6.029,CST-1368DR,4563,5038,11750,01.138,551
2022-09-29T14:42:47,42.805,6.029,CST-1368DR,4563,5048,11774,01.130,551
2022-09-29T14:45:49,42.805,6.029,CST-1368DR,4563,5037,11749,01.138,551
2022-09-29T14:48:51,42.805,6.029,CST-1368DR,4563,5049,11776,01.129,551
2022-09-29T14:51:52,42.805,6.029,CST-1368DR,4563,5045,11767,01.132,551
2022-09-29T14:54:54,42.805,6.029,CST-1368DR,4563,5039,11754,01.136,551
2022-09-29T14:57:55,42.805,6.029,CST-1368DR,4563,5034,11741,01.141,551
2022-09-29T15:00:57,42.805,6.029,CST-1368DR,4563,5029,11730,01.145,551
2022-09-29T15:03:58,42.805,6.029,CST-1368DR,4563,5031,11734,01.143,551
2022-09-29T15:07:00,42.805,6.029,CST-1368DR,4563,5029,11730,01.145,551
2022-09-29T15:10:02,42.805,6.029,CST-1368DR,4563,5029,11731,01.144,551
2022-09-29T15:13:03,42.805,6.029,CST-1368DR,4563,5028,11728,01.145,551
2022-09-29T15:16:05,42.805,6.029,CST-1368DR,4563,5029,11731,01.144,551
2022-09-29T15:19:06,42.805,6.029,CST-1368DR,4563,5033,11739,01.142,551
2022-09-29T15:22:08,42.805,6.029,CST-1368DR,4563,5031,11735,01.143,551
2022-09-29T15:25:09,42.805,6.029,CST-1368DR,4563,5025,11720,01.148,551
2022-09-29T15:28:11,42.805,6.029,CST-1368DR,4563,5030,11732,01.144,551
2022-09-29T15:31:13,42.805,6.029,CST-1368DR,4563,5027,11726,01.146,551
2022-09-29T15:34:14,42.805,6.029,CST-1368DR,4563,5026,11724,01.147,551
2022-09-29T15:37:16,42.805,6.029,CST-1368DR,4563,5031,11734,01.143,551
2022-09-29T15:40:17,42.805,6.029,CST-1368DR,4563,5031,11735,01.143,551
2022-09-29T15:43:19,42.805,6.029,CST-1368DR,4563,5030,11733,01.144,551
2022-09-29T15:46:21,42.805,6.029,CST-1368DR,4563,5033,11740,01.141,551
2022-09-29T15:49:22,42.805,6.029,CST-1368DR,4563,5031,11736,01.143,551
2022-09-29T15:52:24,42.805,6.029,CST-1368DR,4563,5030,11733,01.144,551
2022-09-29T15:55:25,42.805,6.029,CST-1368DR,4563,5029,11729,01.145,551
2022-09-29T15:58:27,42.805,6.029,CST-1368DR,4563,5032,11737,01.142,551
2022-09-29T16:01:28,42.805,6.029,CST-1368DR,4563,5031,11734,01.143,551
2022-09-29T16:04:30,42.805,6.029,CST-1368DR,4563,5029,11729,01.145,551
2022-09-29T16:07:32,42.805,6.029,CST-1368DR,4563,5026,11724,01.147,551
2022-09-29T16:10:33,42.805,6.029,CST-1368DR,4563,5033,11740,01.141,551
2022-09-29T16:13:35,42.805,6.029,CST-1368DR,4563,5028,11727,01.146,551
2022-09-29T16:16:36,42.805,6.029,CST-1368DR,4563,5031,11734,01.143,551
2022-09-29T16:19:38,42.805,6.029,CST-1368DR,4563,5027,11726,01.146,551
2022-09-29T16:22:39,42.805,6.029,CST-1368DR,4563,5028,11727,01.146,551
2022-09-29T16:25:41,42.805,6.029,CST-1368DR,4563,5028,11727,01.146,551
2022-09-29T16:28:43,42.805,6.029,CST-1368DR,4563,5029,11730,01.145,551
2022-09-29T16:31:44,42.805,6.029,CST-1368DR,4563,5031,11734,01.143,551
2022-09-29T16:34:46,42.805,6.029,CST-1368DR,4563,5029,11730,01.145,551
2022-09-29T16:37:47,42.805,6.029,CST-1368DR,4563,5033,11740,01.141,551